Home   Weather   Rathenow   Past weeks

Flag for Germany Past Weather in Rathenow, Brandenburg, Germany — Yesterday and Last 2 Weeks

Now
36 °F

Clear.


Feels Like: 30 °F
Forecast: 27 / 37 °F
Wind: 7 mph from Northwest

Location: Berlin-Tegel

Current Time: Dec 2, 2016 at 7:03:17 pm

Latest Report: Dec 2, 2016 at 6:20 pm


Visibility: 10 mi

Pressure: 30.12 "Hg

Humidity: 81%

Dew Point: 30 °F

Location of RathenowLocation

Past Weather in Rathenow — Graph

°F

Rathenow Temperature Yesterday

Maximum temperature yesterday: 46 °F (at 5:20 pm)
Minimum temperature yesterday: 39 °F (at 12:20 am)
Average temperature yesterday: 44 °F

High & Low Weather Summary for the Past Weeks

 TemperatureHumidityPressure
High57 °F (Nov 18, 9:50 am)100% (Nov 22, 11:50 pm)30.54 "Hg (Nov 22, 11:50 pm)
Low19 °F (Nov 29, 1:20 am)54% (Nov 20, 7:20 pm)29.42 "Hg (Nov 18, 8:50 am)
Average41 °F85%30.01 "Hg
* Reported Nov 17 5:20 pm — Dec 2 5:50 pm, Rathenow, Weather by CustomWeather, © 2016

Note: Actual official high and low records may vary slightly from our data, if they occured in-between our weather recording intervals... More about our weather records

Advertising

Rathenow Weather History for the Previous 24 Hours

Scroll right to see more
 ConditionsComfort  
Time TempWeatherWind HumidityBarometerVisibility
5:50 pm
Fri, Dec 2
36 °FPassing clouds.8 mph81%30.12 "HgN/A
5:20 pm37 °FClear.8 mph81%30.12 "Hg10 mi
4:50 pm37 °FClear.7 mph81%30.12 "Hg10 mi
4:20 pm39 °FPassing clouds.8 mph75%30.12 "HgN/A
3:50 pm39 °FPassing clouds.8 mph75%30.09 "HgN/A
3:20 pm41 °FPassing clouds.9 mph70%30.09 "HgN/A
2:50 pm43 °FPassing clouds.12 mph66%30.09 "HgN/A
2:20 pm43 °FPassing clouds.10 mph61%30.09 "HgN/A
1:50 pm43 °FPassing clouds.10 mph61%30.09 "HgN/A
1:20 pm43 °FScattered clouds.8 mph66%30.07 "HgN/A
12:50 pm43 °FScattered clouds.13 mph66%30.07 "HgN/A
12:20 pm41 °FPassing clouds.12 mph70%30.07 "HgN/A
11:50 am41 °FPassing clouds.10 mph70%30.07 "HgN/A
11:20 am41 °FPassing clouds.13 mph66%30.07 "HgN/A
10:50 am41 °FPassing clouds.10 mph66%30.04 "HgN/A
10:20 am41 °FPassing clouds.9 mph66%30.04 "HgN/A
9:50 am39 °FPassing clouds.10 mph65%30.01 "HgN/A
9:20 am39 °FPassing clouds.10 mph70%30.01 "HgN/A
8:50 am39 °FPassing clouds.9 mph65%29.98 "HgN/A
8:20 am39 °FPassing clouds.10 mph70%29.98 "HgN/A
7:50 am39 °FPassing clouds.8 mph70%29.95 "HgN/A
7:20 am41 °FPassing clouds.13 mph61%29.92 "HgN/A
6:50 am41 °FPassing clouds.10 mph76%29.92 "HgN/A
6:20 am41 °FPassing clouds.12 mph76%29.89 "HgN/A
5:50 am43 °FPassing clouds.10 mph71%29.86 "HgN/A
5:20 am43 °FPassing clouds.12 mph71%29.83 "HgN/A
4:50 am43 °FPassing clouds.12 mph71%29.83 "HgN/A
4:20 am43 °FPassing clouds.15 mph76%29.83 "HgN/A
3:50 am45 °FPassing clouds.15 mph71%29.80 "HgN/A
3:20 am45 °FPassing clouds.15 mph66%29.80 "HgN/A
2:50 am45 °FPassing clouds.16 mph66%29.77 "HgN/A
2:20 am46 °FPassing clouds.15 mph66%29.77 "HgN/A
1:50 am46 °FPassing clouds.18 mph71%29.77 "HgN/A
1:20 am46 °FPassing clouds.17 mph71%29.77 "HgN/A
12:50 am46 °FPassing clouds.17 mph76%29.74 "HgN/A
12:20 am46 °FPartly cloudy.23 mph76%29.74 "HgN/A
11:50 pm
Thu, Dec 1
46 °FPassing clouds.20 mph82%29.74 "HgN/A
11:20 pm46 °FPartly cloudy.21 mph82%29.74 "HgN/A
10:50 pm46 °FPartly cloudy.23 mph82%29.74 "HgN/A
10:20 pm46 °FPassing clouds.24 mph82%29.74 "HgN/A
9:50 pm46 °FLight rain. Passing clouds.20 mph82%29.77 "HgN/A
9:20 pm46 °FLight rain. Partly cloudy.20 mph82%29.77 "HgN/A
8:50 pm46 °FLight rain. Passing clouds.18 mph82%29.77 "HgN/A
8:20 pm45 °FLight rain. Passing clouds.17 mph93%29.80 "Hg4 mi
7:50 pm46 °FLight rain. Passing clouds.20 mph87%29.80 "HgN/A
7:20 pm46 °FLight rain. Passing clouds.21 mph87%29.80 "HgN/A
Weather by CustomWeather, © 2016

See weather overviewHow to use our weather pages